User: anonymous   Login
Location: Budapest
(47.4979°N, 19.0402°E)
Time: 08:53:31
(UTC+02:00)
Language:

Vanguard 2 Rocket - Orbit

View from above orbital plane
View from above orbital plane
View from above satellite
View from above satellite

Ground track
Ground track

The orbit data is extracted from the following two-line orbital elements,

1    12U 59001B   18113.60288226 +.00000329 +00000-0 +17156-3 0  9993
2    12 032.9113 220.2823 1668144 264.6339 076.2571 11.44217455189949
Epoch (UTC): 23 April 2018 14:28:09
Eccentricity: 0.1668144
inclination: 32.9113°
perigee height: 553 km
apogee height: 3328 km
right ascension of ascending node: 220.2823°
argument of perigee: 264.6339°
revolutions per day: 11.44217455
mean anomaly at epoch: 76.2571°
orbit number at epoch: 18994

The dashed part of the orbit path shows where the satellite is in the earth's shadow,  

DLR